Simultaneous Nadir Overpasses (SNOs) Predictions

Prediction of SNOs between NOAA-20 and AQUA Satellite Orbit:

Table of predicted SNOs for the next 14.0 days since TLE Epoch: 2/25/2023
Index Date (NOAA-20) Time (NOAA-20) Lat,Lon (NOAA-20) SZA (NOAA-20 ) Date (AQUA) Time (AQUA) Lat,Lon (AQUA) SZA (AQUA ) Distance(km) Time Diff (sec)
1 02/25/2023 06:45:13 80.06, -19.16 100.95 02/25/2023 06:44:17 80.07, -19.02 100.96 2.81 56
2 02/27/2023 20:30:03 -79.89, -47.15 79.68 02/27/2023 20:30:57 -79.88, -47.23 79.71 1.64 54
3 02/27/2023 21:20:43 80.02, 121.46 100.07 02/27/2023 21:20:18 80.02, 121.52 100.07 1.25 25
4 03/02/2023 11:56:12 79.99, -97.66 99.12 03/02/2023 11:56:17 79.99, -97.69 99.12 0.71 5
5 03/02/2023 12:46:47 -80.28, 72.92 81.50 03/02/2023 12:45:33 -80.31, 72.86 81.44 2.87 74
6 03/05/2023 02:31:40 79.99, 43.48 98.11 03/05/2023 02:32:14 79.99, 43.33 98.11 2.90 34
7 03/05/2023 03:22:20 -80.15,-147.48 82.23 03/05/2023 03:21:35 -80.15,-147.61 82.18 2.57 45
8 03/07/2023 17:07:11 79.87,-176.61 97.32 03/07/2023 17:08:12 79.87,-176.56 97.26 1.01 61
9 03/07/2023 17:57:51 -80.04, -7.59 83.03 03/07/2023 17:57:33 -80.04, -7.51 83.03 1.44 18
10 03/10/2023 08:33:19 -80.03, 133.48 84.05 03/10/2023 08:33:28 -80.03, 133.42 84.04 1.27 9



Historial Predications of SNOs between NOAA-20 and AQUA
